IGO323J VOBL-VOHS

Flight info

Callsign IGO323J
Flight time 0h 44m
Altitude 35000
Route LATID8A LATID Q22 SAKRO SARKA6
Aircraft A20N/M-SDE2E3FGHIRWXY/LB1

Departure

Time 2026-04-28 11:31
Airport Kempegowda International Airport Bengaluru (VOBL)

Arrival

Time 2026-04-28 12:16
Airport Rajiv Gandhi International Airport (VOHS)
Time Latitude Longitude Altitude Speed Heading
2026-04-28 10:54 13.19950 77.72006 2965 ft 0 kts 270°
2026-04-28 11:00 13.19950 77.72019 2968 ft 0 kts 270°
2026-04-28 11:00 13.19950 77.72006 2968 ft 0 kts 270°
2026-04-28 11:01 13.19950 77.72019 2968 ft 0 kts 270°
2026-04-28 11:19 13.19950 77.72037 2968 ft 4 kts 272°
2026-04-28 11:19 13.19948 77.72064 2968 ft 4 kts 277°
2026-04-28 11:19 13.19942 77.72091 2968 ft 4 kts 294°
2026-04-28 11:19 13.19928 77.72109 2968 ft 3 kts 356°
2026-04-28 11:20 13.19926 77.72110 2968 ft 1 kts
2026-04-28 11:23 13.19932 77.72110 2968 ft 2 kts
2026-04-28 11:23 13.19961 77.72110 2968 ft 6 kts
2026-04-28 11:23 13.20014 77.72110 2968 ft 9 kts
2026-04-28 11:23 13.20087 77.72111 2968 ft 12 kts
2026-04-28 11:24 13.20179 77.72111 2968 ft 15 kts
2026-04-28 11:24 13.20288 77.72112 2968 ft 17 kts
2026-04-28 11:24 13.20377 77.72112 2968 ft 11 kts
2026-04-28 11:24 13.20434 77.72077 2968 ft 12 kts 279°
2026-04-28 11:25 13.20435 77.71985 2968 ft 14 kts 269°
2026-04-28 11:25 13.20436 77.71874 2968 ft 15 kts 271°
2026-04-28 11:25 13.20454 77.71792 2967 ft 12 kts 320°
2026-04-28 11:25 13.20519 77.71750 2969 ft 11 kts 284°
2026-04-28 11:26 13.20519 77.71662 2969 ft 14 kts 269°
2026-04-28 11:26 13.20520 77.71545 2967 ft 18 kts 269°
2026-04-28 11:26 13.20519 77.71401 2959 ft 22 kts 269°
2026-04-28 11:26 13.20521 77.71237 2966 ft 24 kts 272°
2026-04-28 11:27 13.20524 77.71051 2965 ft 28 kts 271°
2026-04-28 11:27 13.20526 77.70846 2965 ft 29 kts 270°
2026-04-28 11:27 13.20528 77.70638 2968 ft 26 kts 270°
2026-04-28 11:27 13.20529 77.70445 2968 ft 28 kts 271°
2026-04-28 11:28 13.20531 77.70245 2972 ft 28 kts 270°
2026-04-28 11:28 13.20533 77.70039 2971 ft 30 kts 270°
2026-04-28 11:28 13.20535 77.69817 2970 ft 32 kts 270°
2026-04-28 11:28 13.20537 77.69603 2969 ft 29 kts 270°
2026-04-28 11:29 13.20539 77.69390 2966 ft 30 kts 270°
2026-04-28 11:29 13.20539 77.69316 2967 ft 5 kts 270°
2026-04-28 11:29 13.20539 77.69274 2967 ft 7 kts 270°
2026-04-28 11:29 13.20553 77.69219 2968 ft 9 kts 314°
2026-04-28 11:30 13.20619 77.69210 2969 ft 11 kts 360°
2026-04-28 11:30 13.20709 77.69368 2968 ft 46 kts 90°
2026-04-28 11:30 13.20703 77.69922 2968 ft 107 kts 90°
2026-04-28 11:31 13.20697 77.70857 2968 ft 153 kts 90°
2026-04-28 11:31 13.20685 77.72066 3130 ft 176 kts 91°
2026-04-28 11:31 13.20683 77.73275 3857 ft 166 kts 89°
2026-04-28 11:31 13.20652 77.74488 4341 ft 175 kts 90°
2026-04-28 11:32 13.20604 77.75777 4778 ft 185 kts 86°
2026-04-28 11:32 13.20670 77.77130 5208 ft 198 kts 87°
2026-04-28 11:32 13.20993 77.78542 5611 ft 213 kts 59°
2026-04-28 11:32 13.22090 77.79650 5939 ft 236 kts 28°
2026-04-28 11:33 13.23680 77.80334 6299 ft 261 kts 25°
2026-04-28 11:33 13.25325 77.81299 6673 ft 281 kts 36°
2026-04-28 11:33 13.26912 77.82456 7594 ft 279 kts 33°
2026-04-28 11:33 13.28698 77.83258 8468 ft 284 kts 14°
2026-04-28 11:34 13.30693 77.83432 9264 ft 292 kts
2026-04-28 11:34 13.32715 77.83096 10107 ft 298 kts 344°
2026-04-28 11:34 13.34612 77.82200 10894 ft 305 kts 332°
2026-04-28 11:34 13.36510 77.81077 11259 ft 327 kts 332°
2026-04-28 11:35 13.38557 77.79873 11488 ft 350 kts 332°
2026-04-28 11:35 13.40713 77.78608 12046 ft 360 kts 332°
2026-04-28 11:35 13.42899 77.77328 12844 ft 364 kts 332°
2026-04-28 11:35 13.45112 77.76035 13623 ft 368 kts 332°
2026-04-28 11:36 13.47346 77.74731 14317 ft 372 kts 332°
2026-04-28 11:36 13.49608 77.73413 14981 ft 376 kts 332°
2026-04-28 11:36 13.51948 77.72211 15662 ft 377 kts 341°
2026-04-28 11:36 13.54501 77.71598 16340 ft 378 kts 355°
2026-04-28 11:37 13.57103 77.71642 16945 ft 381 kts
2026-04-28 11:37 13.59789 77.71970 17565 ft 385 kts
2026-04-28 11:37 13.62425 77.72289 18182 ft 389 kts
2026-04-28 11:37 13.65125 77.72611 18712 ft 393 kts
2026-04-28 11:38 13.67855 77.72934 19225 ft 396 kts
2026-04-28 11:38 13.70603 77.73257 19764 ft 399 kts
2026-04-28 11:38 13.73377 77.73582 20260 ft 403 kts
2026-04-28 11:38 13.76178 77.73911 20774 ft 407 kts
2026-04-28 11:39 13.79004 77.74242 21256 ft 411 kts
2026-04-28 11:39 13.81857 77.74577 21770 ft 414 kts
2026-04-28 11:39 13.84738 77.74916 22251 ft 418 kts
2026-04-28 11:39 13.87638 77.75257 22747 ft 422 kts
2026-04-28 11:40 13.90570 77.75601 23215 ft 426 kts
2026-04-28 11:40 13.93527 77.75949 23647 ft 429 kts
2026-04-28 11:40 13.96478 77.76439 24098 ft 431 kts 12°
2026-04-28 11:40 13.99370 77.77301 24486 ft 435 kts 19°
2026-04-28 11:41 14.02230 77.78360 24877 ft 438 kts 18°
2026-04-28 11:41 14.05112 77.79413 25286 ft 441 kts 18°
2026-04-28 11:41 14.08010 77.80465 25702 ft 442 kts 18°
2026-04-28 11:41 14.10920 77.81521 26099 ft 445 kts 18°
2026-04-28 11:42 14.13845 77.82583 26489 ft 447 kts 18°
2026-04-28 11:42 14.16790 77.83654 26869 ft 450 kts 18°
2026-04-28 11:42 14.19747 77.84730 27237 ft 452 kts 18°
2026-04-28 11:42 14.22725 77.85814 27590 ft 455 kts 18°
2026-04-28 11:43 14.25718 77.86905 27940 ft 458 kts 17°
2026-04-28 11:43 14.28729 77.88002 28276 ft 461 kts 17°
2026-04-28 11:43 14.31759 77.89105 28619 ft 463 kts 17°
2026-04-28 11:43 14.34805 77.90215 28950 ft 465 kts 17°
2026-04-28 11:44 14.37866 77.91331 29263 ft 468 kts 17°
2026-04-28 11:44 14.40946 77.92454 29580 ft 471 kts 17°
2026-04-28 11:44 14.44042 77.93583 29907 ft 473 kts 17°
2026-04-28 11:44 14.47167 77.94650 30181 ft 474 kts 12°
2026-04-28 11:45 14.50381 77.95371 30464 ft 473 kts
2026-04-28 11:45 14.53635 77.95906 30760 ft 474 kts
2026-04-28 11:45 14.56898 77.96455 31100 ft 475 kts
2026-04-28 11:45 14.60156 77.97008 31488 ft 474 kts
2026-04-28 11:46 14.63412 77.97562 31899 ft 473 kts
2026-04-28 11:46 14.66660 77.98114 32271 ft 472 kts
2026-04-28 11:46 14.69897 77.98662 32671 ft 471 kts
2026-04-28 11:46 14.73129 77.99209 33050 ft 470 kts
2026-04-28 11:47 14.76351 77.99754 33447 ft 468 kts
2026-04-28 11:47 14.79556 78.00297 33811 ft 467 kts
2026-04-28 11:47 14.82755 78.00838 34126 ft 465 kts
2026-04-28 11:47 14.85950 78.01379 34434 ft 464 kts
2026-04-28 11:48 14.89132 78.01918 34707 ft 463 kts
2026-04-28 11:48 14.92304 78.02456 34796 ft 462 kts
2026-04-28 11:48 14.98637 78.03530 34807 ft 460 kts
2026-04-28 11:49 15.04957 78.04601 34803 ft 460 kts
2026-04-28 11:49 15.11286 78.05675 34802 ft 461 kts
2026-04-28 11:50 15.17617 78.06751 34792 ft 461 kts
2026-04-28 11:50 15.23915 78.07821 34791 ft 462 kts
2026-04-28 11:51 15.30261 78.08899 34793 ft 463 kts
2026-04-28 11:51 15.36625 78.09982 34791 ft 464 kts
2026-04-28 11:52 15.43040 78.11033 34784 ft 464 kts
2026-04-28 11:52 15.48337 78.11891 34777 ft 464 kts
2026-04-28 11:53 15.54719 78.12929 34769 ft 464 kts
2026-04-28 11:53 15.62130 78.14140 34759 ft 464 kts
2026-04-28 11:54 15.67473 78.15013 34759 ft 464 kts
2026-04-28 11:54 15.73849 78.16056 34758 ft 464 kts
2026-04-28 11:55 15.80199 78.17096 34592 ft 461 kts
2026-04-28 11:55 15.83372 78.17615 34367 ft 463 kts
2026-04-28 11:55 15.86559 78.18136 34142 ft 464 kts
2026-04-28 11:56 15.89752 78.18658 33861 ft 465 kts
2026-04-28 11:56 15.92961 78.19183 33173 ft 469 kts
2026-04-28 11:56 15.96201 78.19712 32218 ft 474 kts
2026-04-28 11:56 15.99474 78.20247 31315 ft 478 kts
2026-04-28 11:57 16.02753 78.20786 30678 ft 474 kts
2026-04-28 11:57 16.06002 78.21322 30040 ft 471 kts
2026-04-28 11:57 16.09222 78.21852 29347 ft 468 kts
2026-04-28 11:57 16.12413 78.22377 28799 ft 461 kts
2026-04-28 11:58 16.15522 78.22888 28215 ft 456 kts
2026-04-28 11:58 16.18679 78.23405 27611 ft 451 kts
2026-04-28 11:58 16.21721 78.23904 27021 ft 447 kts
2026-04-28 11:58 16.24781 78.24404 26431 ft 443 kts
2026-04-28 11:59 16.27817 78.24900 25850 ft 440 kts
2026-04-28 11:59 16.30835 78.25392 25246 ft 437 kts
2026-04-28 11:59 16.33836 78.25883 24655 ft 435 kts
2026-04-28 11:59 16.36818 78.26371 24052 ft 433 kts
2026-04-28 12:00 16.39781 78.26856 23469 ft 431 kts
2026-04-28 12:00 16.42737 78.27340 22796 ft 429 kts
2026-04-28 12:00 16.45662 78.27820 22269 ft 423 kts
2026-04-28 12:00 16.48552 78.28295 21686 ft 418 kts
2026-04-28 12:01 16.51411 78.28764 21102 ft 414 kts
2026-04-28 12:01 16.54247 78.29230 20532 ft 410 kts
2026-04-28 12:01 16.57056 78.29691 19951 ft 407 kts
2026-04-28 12:01 16.59842 78.30150 19367 ft 404 kts
2026-04-28 12:02 16.62604 78.30606 18783 ft 401 kts
2026-04-28 12:02 16.65344 78.31059 18200 ft 398 kts
2026-04-28 12:02 16.68065 78.31508 17583 ft 394 kts
2026-04-28 12:02 16.70753 78.31952 17065 ft 388 kts
2026-04-28 12:03 16.73397 78.32390 16515 ft 383 kts
2026-04-28 12:03 16.76015 78.32822 15967 ft 379 kts
2026-04-28 12:03 16.78603 78.33250 15414 ft 375 kts
2026-04-28 12:03 16.81166 78.33674 14872 ft 371 kts
2026-04-28 12:04 16.83708 78.34095 14345 ft 368 kts
2026-04-28 12:04 16.86229 78.34512 13839 ft 363 kts
2026-04-28 12:04 16.88719 78.34924 13235 ft 362 kts
2026-04-28 12:04 16.91187 78.35333 12525 ft 356 kts
2026-04-28 12:05 16.93592 78.35732 11706 ft 353 kts
2026-04-28 12:05 16.96000 78.36130 10909 ft 348 kts
2026-04-28 12:05 16.98377 78.36523 10144 ft 344 kts
2026-04-28 12:05 17.00719 78.36911 9599 ft 333 kts
2026-04-28 12:06 17.02091 78.37139 9462 ft 320 kts
2026-04-28 12:06 17.04223 78.37494 9272 ft 300 kts
2026-04-28 12:06 17.06218 78.37825 9083 ft 282 kts
2026-04-28 12:06 17.08127 78.38143 8630 ft 275 kts
2026-04-28 12:07 17.10015 78.38457 8089 ft 276 kts
2026-04-28 12:07 17.11870 78.38934 7716 ft 274 kts 25°
2026-04-28 12:07 17.13379 78.40132 7316 ft 276 kts 50°
2026-04-28 12:07 17.14216 78.41908 7072 ft 272 kts 76°
2026-04-28 12:08 17.14346 78.43836 7006 ft 260 kts 87°
2026-04-28 12:08 17.14373 78.45668 6999 ft 244 kts 87°
2026-04-28 12:08 17.14405 78.47435 7001 ft 246 kts 86°
2026-04-28 12:08 17.14441 78.49228 6988 ft 245 kts 86°
2026-04-28 12:09 17.14476 78.50978 6857 ft 238 kts 86°
2026-04-28 12:09 17.14512 78.52705 6541 ft 237 kts 86°
2026-04-28 12:09 17.14549 78.54435 6199 ft 238 kts 86°
2026-04-28 12:09 17.14594 78.56157 5844 ft 236 kts 86°
2026-04-28 12:10 17.14651 78.57876 5472 ft 237 kts 86°
2026-04-28 12:10 17.14725 78.59576 5155 ft 236 kts 86°
2026-04-28 12:10 17.14967 78.61258 4812 ft 235 kts 66°
2026-04-28 12:10 17.15952 78.62565 4640 ft 228 kts 33°
2026-04-28 12:11 17.17385 78.63063 4619 ft 210 kts
2026-04-28 12:11 17.18846 78.63077 4595 ft 213 kts 360°
2026-04-28 12:11 17.20294 78.62850 4599 ft 212 kts 334°
2026-04-28 12:11 17.21394 78.61884 4597 ft 202 kts 310°
2026-04-28 12:12 17.22240 78.60730 4602 ft 200 kts 301°
2026-04-28 12:12 17.22800 78.59402 4530 ft 201 kts 284°
2026-04-28 12:12 17.23020 78.57972 4286 ft 197 kts 273°
2026-04-28 12:12 17.23062 78.56575 4035 ft 188 kts 269°
2026-04-28 12:13 17.23052 78.55240 3793 ft 179 kts 267°
2026-04-28 12:13 17.23036 78.53982 3583 ft 166 kts 267°
2026-04-28 12:13 17.23026 78.53263 3446 ft 159 kts 266°
2026-04-28 12:13 17.23012 78.52161 3277 ft 145 kts 265°
2026-04-28 12:14 17.22997 78.51146 3095 ft 135 kts 265°
2026-04-28 12:14 17.22977 78.50173 2968 ft 135 kts 265°
2026-04-28 12:14 17.22940 78.49170 2756 ft 142 kts 265°
2026-04-28 12:14 17.22925 78.48147 2590 ft 139 kts 269°
2026-04-28 12:15 17.22942 78.47129 2425 ft 144 kts 269°
2026-04-28 12:15 17.22942 78.46041 2237 ft 156 kts 264°
2026-04-28 12:15 17.22909 78.44923 1988 ft 150 kts 266°
2026-04-28 12:15 17.22891 78.43926 1979 ft 122 kts 269°
2026-04-28 12:16 17.22888 78.43349 1982 ft 48 kts 266°
2026-04-28 12:16 17.22906 78.43070 1980 ft 18 kts 290°
2026-04-28 12:16 17.22962 78.42946 1980 ft 21 kts 299°
2026-04-28 12:16 17.23024 78.42835 1980 ft 14 kts 300°
2026-04-28 12:17 17.23084 78.42741 1980 ft 16 kts 322°
2026-04-28 12:17 17.23170 78.42730 1982 ft 14 kts 360°
2026-04-28 12:17 17.23268 78.42729 1982 ft 10 kts 358°
2026-04-28 12:17 17.23335 78.42712 1981 ft 11 kts 353°
2026-04-28 12:18 17.23383 78.42712 1980 ft 6 kts 359°
2026-04-28 12:18 17.23407 78.42711 1981 ft 2 kts 359°
2026-04-28 12:18 17.23413 78.42711 1980 ft 0 kts 359°
2026-04-28 12:20 17.22911 78.45115 2003 ft 154 kts 266°
2026-04-28 12:20 17.22939 78.45991 2232 ft 155 kts 263°
2026-04-28 12:20 17.22909 78.44872 1988 ft 149 kts 266°
2026-04-28 12:20 17.22900 78.44403 1979 ft 138 kts 267°